This demonstration page uses our WeatherBlox Daily Observations layout. Learn more.

Left ArrowRight Arrow

36.17497, -115.13722

Hourly Observations for July 26, 2021

Temp ( °F °C ) Dew Point ( °F °C ) Humidity (%) Winds ( mph kmh ) Pressure ( in mb ) Visibility ( mi km ) Precip ( " mm )
12:53 am 00:53 Clear 78 25.6 67 19.4 69 69 N N/A 29.91 1013 10 16 N/A
1:53 am 01:53 Clear 78 25.6 69 20.6 74 74 ENE 5 7 29.91 1013 10 16 N/A
2:53 am 02:53 Clear 78 25.6 70 21.1 76 76 E 5 7 29.92 1013 10 16 N/A
3:53 am 03:53 Clear 78 25.6 70 21.1 76 76 N N/A 29.92 1013 10 16 N/A
4:53 am 04:53 Clear 78 25.6 70 21.1 76 76 ENE 6 9 29.92 1013 10 16 N/A
5:53 am 05:53 Mostly Sunny 78 25.6 71 21.7 79 79 N N/A 29.93 1014 10 16 N/A
6:07 am 06:07 Mostly Cloudy 78 25.6 71 21.7 79 79 E 5 7 29.85 1011 10 16 N/A
6:53 am 06:53 Cloudy 79 26.1 71 21.7 77 77 ESE 5 7 29.94 1014 10 16 N/A
7:46 am 07:46 Cloudy 80 26.7 71 21.7 74 74 SE 6 9 29.87 1012 10 16 N/A
7:53 am 07:53 Mostly Cloudy 80 26.7 71 21.7 74 74 ESE 7 11 29.96 1015 10 16 N/A
8:53 am 08:53 Mostly Cloudy 81 27.2 71 21.7 72 72 E 7 11 29.99 1016 10 16 N/A
9:53 am 09:53 Mostly Sunny 83 28.3 70 21.1 65 65 E 9 15 29.98 1015 10 16 N/A
10:26 am 10:26 Partly Cloudy with Thunderstorms 84 28.9 70 21.1 63 63 ESE 12 19 29.86 1011 10 16 N/A
10:41 am 10:41 Mostly Cloudy with Nearby Thunderstorms 85 29.4 69 20.6 59 59 ESE 13 20 29.86 1011 10 16 N/A
10:53 am 10:53 Partly Cloudy 85 29.4 69 20.6 59 59 ESE 10 17 29.98 1015 10 16 N/A
11:30 am 11:30 Mostly Cloudy with Nearby Thunderstorms 83 28.3 69 20.6 63 63 SW 14 22 29.87 1011 10 16 N/A
11:43 am 11:43 Cloudy 82 27.8 67 19.4 60 60 WSW 17 28 29.87 1012 10 16 N/A
11:53 am 11:53 Cloudy with Light Rain 79 26.1 69 20.6 72 72 WSW 13 20 30.01 1016 2 3 N/A
12:03 pm 12:03 Mostly Cloudy with Light Rain 78 25.6 70 21.1 76 76 W 16 26 29.89 1012 3 5 N/A
12:16 pm 12:16 Mostly Cloudy with Thunderstorms 78 25.6 72 22.2 82 82 W 12 19 29.90 1013 10 16 N/A
12:31 pm 12:31 Mostly Cloudy 79 26.1 71 21.7 77 77 W 9 15 29.89 1012 10 16 N/A
12:53 pm 12:53 Mostly Cloudy 81 27.2 71 21.7 72 72 W 7 11 29.99 1016 10 16 N/A
1:53 pm 13:53 Partly Cloudy 85 29.4 68 20 57 57 S 10 17 29.96 1015 10 16 N/A
2:53 pm 14:53 Mostly Sunny 86 30 67 19.4 53 53 ESE 10 17 29.94 1014 10 16 N/A
3:53 pm 15:53 Sunny 87 30.6 66 18.9 50 50 ESE 8 13 29.92 1013 10 16 N/A
4:53 pm 16:53 Sunny 89 31.7 64 17.8 43 43 SE 7 11 29.90 1013 10 16 N/A
5:53 pm 17:53 Sunny 91 32.8 64 17.8 41 41 WSW 6 9 29.89 1012 10 16 N/A
6:29 pm 18:29 Mostly Cloudy with Nearby Thunderstorms 91 32.8 64 17.8 41 41 N N/A 29.75 1007 10 16 N/A
6:42 pm 18:42 Cloudy with Thunderstorms 90 32.2 64 17.8 42 42 SSE 5 7 29.75 1007 10 16 N/A
6:53 pm 18:53 Cloudy with Heavy Rain 83 28.3 70 21.1 65 65 S 17 28 29.92 1013 4 6 N/A
7:53 pm 19:53 Mostly Clear 82 27.8 69 20.6 65 65 N N/A 29.93 1013 10 16 N/A
8:53 pm 20:53 Clear 82 27.8 71 21.7 69 69 N N/A 29.94 1014 10 16 N/A
9:53 pm 21:53 Clear 83 28.3 70 21.1 65 65 N N/A 29.96 1015 10 16 N/A
10:53 pm 22:53 Clear 82 27.8 69 20.6 65 65 NW 5 7 29.96 1015 10 16 N/A
11:53 pm 23:53 Clear 82 27.8 69 20.6 65 65 WSW 3 6 29.97 1015 10 16 N/A

Powered by AerisWeather